Snowfall_Accumulation
1.1 0.0 0.0 0.0 0.0 0.0 0.0 0.0 0.0 0.0 0.0 0.0 0.0 0.0 0.0 0.0 0.0 0.0 0.0 0.0 0.0 0.0 0.0 0.0 0.0 0.0 0.0
0.1 0.0 0.0 0.0 0.0 0.0 0.0 0.0 0.0 0.0 0.0 0.0 0.0 0.0 0.0 0.0 0.1 0.0 0.0 0.0 0.0 0.0 0.0 0.0 0.0 0.0 0.0
0.1 0.0 0.0 0.0 0.0 0.0 0.0 0.0 0.0 0.0 0.0 0.0 0.0 0.0 0.0 0.0 0.0 0.4 0.2 0.0 0.0 0.0 0.0 0.0 0.0 0.0 0.0
0.1 1.2 0.3 0.1 0.4 0.2 0.0 0.0 0.0 0.0 0.0 0.0 0.0 0.0 0.0 0.0 0.0 0.0 0.0 0.0 0.0 0.1 0.0 0.0 0.0 0.0 0.0
2.7 1.7 1.4 0.0 0.0 0.0 0.1 0.0 0.1 0.0 0.0 0.0 0.0 0.0 0.0 0.0 0.0 0.0 0.0 0.1 0.1 0.2 0.2 0.1 0.2 0.0 0.0
4.6 0.9 0.1 0.1 0.0 0.2 1.3 1.4 1.5 0.0 0.2 0.2 0.0 0.0 0.0 0.0 0.0 0.0 0.1 0.2 0.0 0.5 0.6 0.7 0.0 0.0 0.0
0.5 0.3 0.4 0.1 1.9 2.6 1.9 3.4 2.4 0.0 0.3 0.4 0.0 0.0 0.0 0.0 0.0 0.0 0.1 0.1 0.2 0.4 0.7 0.6 0.7 0.0 0.0
0.2 0.4 1.1 0.7 1.4 2.6 3.6 2.0 0.4 0.1 0.3 1.9 0.2 0.1 0.0 0.0 0.0 0.0 0.0 0.2 0.4 0.7 0.7 0.7 0.8 0.6 0.3
0.6 0.5 0.3 0.0 0.0 2.3 2.8 3.1 2.3 0.2 0.1 0.7 0.3 0.4 0.2 0.1 0.0 0.0 0.4 0.1 0.6 0.4 0.6 0.4 0.6 0.3 0.0
0.1 0.1 0.0 0.0 0.0 0.6 5.4 10.9 5.2 4.0 0.1 4.7 1.9 1.8 5.5 2.1 1.7 1.4 0.1 0.0 0.0 0.1 0.3 0.5 0.4 0.7 1.0
0.0 0.0 0.0 0.0 0.2 0.7 2.5 9.1 12.5 8.1 0.2 9.7 11.0 1.5 9.4 5.5 3.5 3.7 2.9 0.1 0.2 0.0 0.0 0.4 0.7 0.9 3.2
0.2 0.3 0.2 0.2 0.2 0.3 0.4 2.3 4.3 8.9 2.9 4.8 20.9 11.6 15.1 10.7 5.5 5.1 2.6 3.9 2.4 1.4 0.6 0.6 0.6 1.2 1.3
2.3 1.6 2.2 1.6 2.9 5.0 6.8 7.1 7.9 9.1 9.1 8.0 11.8 12.2 14.1 14.3 9.1 5.5 7.0 6.1 4.7 6.5 4.5 2.3 3.0 1.7 2.3
4.5 3.9 5.3 6.0 6.1 7.3 11.5 9.3 10.7 8.4 6.5 6.5 7.8 10.1 11.0 7.8 11.0 9.0 6.8 11.2 10.3 9.9 9.7 5.0 1.7 0.9 1.1
3.9 3.9 4.2 6.5 6.9 8.4 12.9 11.9 11.4 8.6 6.2 6.1 7.3 5.5 5.4 7.2 13.3 8.7 12.3 10.8 11.2 14.9 12.7 7.3 7.2 5.5 2.2
6.3 6.6 8.2 10.5 12.8 14.4 14.7 14.1 12.7 8.4 9.4 6.7 7.1 8.7 9.4 6.1 10.9 13.7 12.3 14.7 17.5 18.8 15.8 10.2 9.6 8.0 4.4
9.4 9.2 11.6 14.6 16.7 15.5 13.6 12.9 11.1 8.8 6.8 6.5 9.8 14.1 17.2 9.2 7.0 10.1 16.3 14.8 13.3 14.7 17.0 12.6 12.4 8.5 2.1